Location: Hurecourt
(47.9030°N, 6.0653°E)
Time: 08:47:06
(UTC+00:00)

H-2A R/B - Pass Details

Date: 14 July 2020
Orbit: 577 x 656 km, 98.5° (Epoch: 14 August)

Event Time Altitude Azimuth Distance (km) Brightness Sun altitude
Rises 02:04:20 0° 137° (SE) 2,924 5.4 -13.5°
Reaches altitude 10° 02:06:44 10° 127° (SE) 2,008 4.7 -13.2°
Maximum altitude 02:10:33 31° 66° (ENE) 1,109 4.0 -12.9°
Drops below altitude 10° 02:14:19 10° 5° (N) 1,978 5.6 -12.5°
Sets 02:16:39 0° 355° (N) 2,874 6.3 -12.3°
